FHA57EL EDDM-LFML

Flight info

Callsign FHA57EL
Flight time 1h 36m
Altitude 33000
Route ALG2Q ALG Y109 UMTEX Y100 TRA/N0458F350 DCT LUTIX DCT BENOT DCT NEMOS DCT GEVEA DCT INCUS DCT BALSI BALSI1D
Aircraft A321/M-SDE3FGHIRWY/LB1

Departure

Time 2026-05-06 13:05
Airport Munich Airport (EDDM)

Arrival

Time 2026-05-06 14:41
Airport Marseille Provence Airport (LFML)
Time Latitude Longitude Altitude Speed Heading
2026-05-06 12:12 48.35111 11.77943 1479 ft 0 kts 83°
2026-05-06 12:52 48.35110 11.77923 1472 ft 4 kts 83°
2026-05-06 12:53 48.35107 11.77884 1485 ft 3 kts 83°
2026-05-06 12:53 48.35104 11.77851 1482 ft 4 kts 86°
2026-05-06 12:53 48.35108 11.77814 1478 ft 4 kts 128°
2026-05-06 12:53 48.35128 11.77794 1481 ft 3 kts 172°
2026-05-06 12:54 48.35151 11.77790 1474 ft 1 kts 173°
2026-05-06 12:54 48.35153 11.77790 1475 ft 0 kts 173°
2026-05-06 12:58 48.35149 11.77791 1474 ft 4 kts 173°
2026-05-06 12:59 48.35064 11.77805 1475 ft 18 kts 173°
2026-05-06 12:59 48.34939 11.77828 1479 ft 19 kts 173°
2026-05-06 12:59 48.34880 11.77845 1482 ft 10 kts 160°
2026-05-06 12:59 48.34768 11.77885 1485 ft 19 kts 175°
2026-05-06 13:00 48.34735 11.77890 1480 ft 2 kts 175°
2026-05-06 13:00 48.34691 11.77887 1480 ft 10 kts 195°
2026-05-06 13:00 48.34653 11.77764 1480 ft 18 kts 264°
2026-05-06 13:00 48.34635 11.77540 1480 ft 25 kts 263°
2026-05-06 13:01 48.34611 11.77248 1478 ft 29 kts 263°
2026-05-06 13:01 48.34587 11.76946 1481 ft 29 kts 263°
2026-05-06 13:01 48.34567 11.76692 1485 ft 13 kts 263°
2026-05-06 13:01 48.34557 11.76552 1485 ft 15 kts 263°
2026-05-06 13:02 48.34545 11.76378 1485 ft 19 kts 264°
2026-05-06 13:02 48.34527 11.76161 1485 ft 23 kts 264°
2026-05-06 13:02 48.34509 11.75907 1475 ft 25 kts 264°
2026-05-06 13:02 48.34439 11.75791 1480 ft 15 kts 177°
2026-05-06 13:03 48.34357 11.75877 1477 ft 15 kts 114°
2026-05-06 13:03 48.34312 11.76028 1480 ft 16 kts 114°
2026-05-06 13:03 48.34264 11.76187 1484 ft 17 kts 114°
2026-05-06 13:03 48.34214 11.76358 1471 ft 21 kts 114°
2026-05-06 13:04 48.34191 11.76672 1485 ft 50 kts 84°
2026-05-06 13:04 48.34255 11.77536 1486 ft 116 kts 83°
2026-05-06 13:04 48.34372 11.79018 1486 ft 167 kts 83°
2026-05-06 13:04 48.34524 11.80886 1847 ft 179 kts 81°
2026-05-06 13:05 48.34733 11.82681 2660 ft 171 kts 78°
2026-05-06 13:05 48.34969 11.84436 3342 ft 176 kts 81°
2026-05-06 13:05 48.35106 11.86376 3706 ft 197 kts 84°
2026-05-06 13:05 48.35225 11.88532 3923 ft 218 kts 85°
2026-05-06 13:06 48.35362 11.90912 4057 ft 240 kts 84°
2026-05-06 13:06 48.35485 11.93516 4374 ft 256 kts 94°
2026-05-06 13:06 48.34949 11.95991 5091 ft 255 kts 127°
2026-05-06 13:06 48.33679 11.97804 5862 ft 252 kts 143°
2026-05-06 13:07 48.32290 11.99423 6532 ft 254 kts 144°
2026-05-06 13:07 48.30893 12.01041 6728 ft 253 kts 146°
2026-05-06 13:07 48.29363 12.02280 6814 ft 250 kts 164°
2026-05-06 13:07 48.27611 12.02678 7060 ft 264 kts 183°
2026-05-06 13:08 48.25752 12.02546 7647 ft 270 kts 184°
2026-05-06 13:08 48.23863 12.02429 8346 ft 272 kts 184°
2026-05-06 13:08 48.21963 12.02324 9072 ft 274 kts 184°
2026-05-06 13:08 48.20051 12.02221 9792 ft 276 kts 184°
2026-05-06 13:09 48.18149 12.02116 10432 ft 278 kts 184°
2026-05-06 13:09 48.16208 12.02010 11072 ft 280 kts 185°
2026-05-06 13:09 48.14255 12.01901 11724 ft 282 kts 185°
2026-05-06 13:09 48.12280 12.01786 12362 ft 285 kts 185°
2026-05-06 13:10 48.10304 12.01558 12991 ft 285 kts 194°
2026-05-06 13:10 48.08474 12.00458 13609 ft 285 kts 214°
2026-05-06 13:10 48.07027 11.98453 14160 ft 287 kts 234°
2026-05-06 13:10 48.06146 11.95771 14726 ft 291 kts 252°
2026-05-06 13:11 48.05656 11.92865 15274 ft 293 kts 253°
2026-05-06 13:11 48.05164 11.89892 15829 ft 295 kts 253°
2026-05-06 13:11 48.04667 11.86904 16385 ft 297 kts 253°
2026-05-06 13:11 48.04166 11.83907 16941 ft 299 kts 253°
2026-05-06 13:12 48.03652 11.80870 17453 ft 302 kts 253°
2026-05-06 13:12 48.03131 11.77818 17981 ft 304 kts 253°
2026-05-06 13:12 48.02603 11.74741 18456 ft 306 kts 253°
2026-05-06 13:12 48.02075 11.71652 18939 ft 308 kts 253°
2026-05-06 13:13 48.01549 11.68547 19418 ft 309 kts 253°
2026-05-06 13:13 48.01156 11.65377 19900 ft 313 kts 262°
2026-05-06 13:13 48.01015 11.62168 20365 ft 314 kts 262°
2026-05-06 13:13 48.00867 11.58909 20834 ft 316 kts 262°
2026-05-06 13:14 48.00715 11.55633 21304 ft 317 kts 262°
2026-05-06 13:14 48.00561 11.52342 21781 ft 319 kts 262°
2026-05-06 13:14 48.00407 11.49022 22197 ft 322 kts 262°
2026-05-06 13:14 48.00253 11.45678 22643 ft 323 kts 262°
2026-05-06 13:15 48.00095 11.42326 23093 ft 325 kts 262°
2026-05-06 13:15 47.99989 11.40093 23381 ft 326 kts 262°
2026-05-06 13:15 47.99770 11.35560 23892 ft 328 kts 262°
2026-05-06 13:15 47.99606 11.32208 24260 ft 329 kts 261°
2026-05-06 13:16 47.99442 11.28797 24641 ft 330 kts 261°
2026-05-06 13:16 47.99276 11.25382 25019 ft 330 kts 261°
2026-05-06 13:16 47.99109 11.21961 25430 ft 331 kts 261°
2026-05-06 13:16 47.98939 11.18528 25800 ft 332 kts 261°
2026-05-06 13:17 47.98766 11.15083 26186 ft 333 kts 261°
2026-05-06 13:17 47.98590 11.11631 26544 ft 334 kts 261°
2026-05-06 13:17 47.98473 11.09345 26792 ft 335 kts 261°
2026-05-06 13:17 47.98296 11.05871 27139 ft 336 kts 261°
2026-05-06 13:18 47.98276 11.01199 27445 ft 345 kts 266°
2026-05-06 13:18 47.98355 10.97587 27581 ft 352 kts 266°
2026-05-06 13:18 47.98436 10.93901 27718 ft 359 kts 266°
2026-05-06 13:18 47.98521 10.90145 27856 ft 365 kts 266°
2026-05-06 13:19 47.98605 10.86323 27988 ft 372 kts 266°
2026-05-06 13:19 47.98687 10.82433 28123 ft 378 kts 266°
2026-05-06 13:19 47.98741 10.79823 28219 ft 382 kts 266°
2026-05-06 13:19 47.98821 10.75827 28358 ft 388 kts 266°
2026-05-06 13:20 47.98901 10.71773 28502 ft 394 kts 266°
2026-05-06 13:20 47.98984 10.67656 28643 ft 399 kts 266°
2026-05-06 13:20 47.99095 10.62125 28860 ft 406 kts 266°
2026-05-06 13:21 47.99235 10.54987 29115 ft 414 kts 266°
2026-05-06 13:21 47.99318 10.50670 29247 ft 418 kts 266°
2026-05-06 13:21 47.99395 10.46380 29398 ft 421 kts 266°
2026-05-06 13:21 47.99471 10.42007 29634 ft 421 kts 266°
2026-05-06 13:22 47.99546 10.37642 29926 ft 421 kts 266°
2026-05-06 13:22 47.99622 10.33274 30181 ft 420 kts 266°
2026-05-06 13:22 47.99625 10.28926 30379 ft 417 kts 261°
2026-05-06 13:22 47.99208 10.24679 30608 ft 411 kts 253°
2026-05-06 13:23 47.98356 10.20629 30832 ft 409 kts 246°
2026-05-06 13:23 47.97365 10.16708 31010 ft 409 kts 246°
2026-05-06 13:23 47.96367 10.12735 31234 ft 409 kts 246°
2026-05-06 13:23 47.95371 10.08758 31464 ft 409 kts 246°
2026-05-06 13:24 47.94375 10.04782 31694 ft 409 kts 246°
2026-05-06 13:24 47.93381 10.00819 31926 ft 408 kts 246°
2026-05-06 13:24 47.92387 9.96861 32166 ft 408 kts 246°
2026-05-06 13:24 47.91392 9.92904 32414 ft 407 kts 246°
2026-05-06 13:25 47.90397 9.88956 32646 ft 407 kts 246°
2026-05-06 13:25 47.89399 9.85014 32809 ft 407 kts 246°
2026-05-06 13:25 47.88416 9.81117 32837 ft 407 kts 246°
2026-05-06 13:26 47.86448 9.73217 32858 ft 409 kts 246°
2026-05-06 13:26 47.84459 9.65252 32833 ft 411 kts 246°
2026-05-06 13:27 47.83099 9.56933 32836 ft 416 kts 256°
2026-05-06 13:27 47.82086 9.48464 32849 ft 416 kts 255°
2026-05-06 13:28 47.81067 9.40052 32832 ft 416 kts 255°
2026-05-06 13:28 47.79915 9.31645 32863 ft 411 kts 246°
2026-05-06 13:28 47.78634 9.27896 32854 ft 406 kts 234°
2026-05-06 13:29 47.77050 9.24434 32848 ft 405 kts 233°
2026-05-06 13:29 47.73857 9.17529 32836 ft 405 kts 233°
2026-05-06 13:30 47.70658 9.10624 32831 ft 406 kts 233°
2026-05-06 13:30 47.67462 9.03703 32838 ft 407 kts 233°
2026-05-06 13:31 47.64276 8.96836 32855 ft 407 kts 233°
2026-05-06 13:31 47.61058 8.89937 32886 ft 407 kts 233°
2026-05-06 13:32 47.57845 8.83045 32891 ft 407 kts 233°
2026-05-06 13:32 47.54629 8.76162 32898 ft 406 kts 233°
2026-05-06 13:33 47.51402 8.69282 32905 ft 407 kts 233°
2026-05-06 13:33 47.48190 8.62463 32907 ft 407 kts 233°
2026-05-06 13:34 47.44947 8.55598 32904 ft 408 kts 233°
2026-05-06 13:34 47.41702 8.48720 32907 ft 408 kts 233°
2026-05-06 13:35 47.38455 8.41862 32873 ft 408 kts 232°
2026-05-06 13:35 47.35194 8.35009 32873 ft 408 kts 232°
2026-05-06 13:36 47.31954 8.28206 32889 ft 409 kts 232°
2026-05-06 13:36 47.28673 8.21334 32854 ft 411 kts 232°
2026-05-06 13:37 47.25378 8.14442 32856 ft 412 kts 232°
2026-05-06 13:37 47.22074 8.07546 32860 ft 413 kts 232°
2026-05-06 13:38 47.18776 8.00695 32871 ft 413 kts 232°
2026-05-06 13:38 47.15450 7.93803 32875 ft 414 kts 232°
2026-05-06 13:39 47.12122 7.86907 32890 ft 414 kts 232°
2026-05-06 13:39 47.08790 7.80025 32890 ft 413 kts 232°
2026-05-06 13:40 47.05472 7.73204 32895 ft 413 kts 232°
2026-05-06 13:40 47.02132 7.66338 32904 ft 414 kts 232°
2026-05-06 13:41 46.98792 7.59484 32906 ft 413 kts 232°
2026-05-06 13:41 46.95440 7.52640 32906 ft 414 kts 232°
2026-05-06 13:42 46.92108 7.45853 32917 ft 412 kts 232°
2026-05-06 13:42 46.88762 7.39055 32917 ft 411 kts 232°
2026-05-06 13:43 46.85421 7.32274 32904 ft 411 kts 232°
2026-05-06 13:43 46.82076 7.25506 32903 ft 412 kts 232°
2026-05-06 13:44 46.78711 7.18732 32913 ft 413 kts 232°
2026-05-06 13:44 46.75367 7.11991 32925 ft 413 kts 232°
2026-05-06 13:45 46.72004 7.05219 32920 ft 412 kts 232°
2026-05-06 13:45 46.66952 6.95096 32930 ft 412 kts 232°
2026-05-06 13:46 46.63580 6.88363 32966 ft 412 kts 232°
2026-05-06 13:46 46.60210 6.81656 32921 ft 414 kts 232°
2026-05-06 13:47 46.56803 6.74882 32903 ft 415 kts 232°
2026-05-06 13:47 46.53389 6.68106 32921 ft 416 kts 232°
2026-05-06 13:48 46.49960 6.61326 32914 ft 416 kts 232°
2026-05-06 13:48 46.46443 6.54664 32911 ft 415 kts 223°
2026-05-06 13:49 46.44163 6.52137 32924 ft 413 kts 208°
2026-05-06 13:49 46.41580 6.50452 32912 ft 414 kts 204°
2026-05-06 13:49 46.36242 6.47303 32925 ft 414 kts 203°
2026-05-06 13:50 46.30896 6.44200 32944 ft 414 kts 203°
2026-05-06 13:50 46.25557 6.41081 32951 ft 414 kts 203°
2026-05-06 13:51 46.20214 6.37945 32959 ft 415 kts 203°
2026-05-06 13:51 46.14885 6.34817 32929 ft 417 kts 203°
2026-05-06 13:52 46.09489 6.31669 32924 ft 419 kts 203°
2026-05-06 13:52 46.04087 6.28525 32930 ft 419 kts 203°
2026-05-06 13:53 45.98676 6.25381 32925 ft 419 kts 203°
2026-05-06 13:53 45.93278 6.22244 32961 ft 418 kts 203°
2026-05-06 13:54 45.87925 6.19141 32980 ft 417 kts 203°
2026-05-06 13:54 45.82542 6.16031 32971 ft 416 kts 203°
2026-05-06 13:55 45.77172 6.12936 32964 ft 416 kts 204°
2026-05-06 13:55 45.71812 6.09855 32972 ft 415 kts 204°
2026-05-06 13:56 45.66491 6.06804 32974 ft 414 kts 204°
2026-05-06 13:56 45.61153 6.03736 32966 ft 414 kts 204°
2026-05-06 13:57 45.55813 6.00686 32840 ft 412 kts 204°
2026-05-06 13:57 45.53157 5.99173 32548 ft 411 kts 204°
2026-05-06 13:57 45.50527 5.97608 32281 ft 409 kts 207°
2026-05-06 13:58 45.48053 5.95616 32024 ft 408 kts 214°
2026-05-06 13:58 45.45820 5.93203 31771 ft 409 kts 221°
2026-05-06 13:58 45.43778 5.90388 31521 ft 408 kts 225°
2026-05-06 13:58 45.41784 5.87520 31251 ft 407 kts 225°
2026-05-06 13:59 45.39790 5.84665 30997 ft 406 kts 225°
2026-05-06 13:59 45.37796 5.81818 30752 ft 407 kts 225°
2026-05-06 13:59 45.35791 5.78961 30542 ft 410 kts 225°
2026-05-06 13:59 45.33773 5.76082 30301 ft 411 kts 225°
2026-05-06 14:00 45.31755 5.73203 30062 ft 412 kts 226°
2026-05-06 14:00 45.29732 5.70316 29783 ft 413 kts 225°
2026-05-06 14:00 45.27742 5.67477 29503 ft 413 kts 225°
2026-05-06 14:00 45.25711 5.64582 29212 ft 414 kts 225°
2026-05-06 14:01 45.23700 5.61723 28938 ft 414 kts 225°
2026-05-06 14:01 45.21671 5.58841 28935 ft 413 kts 225°
2026-05-06 14:01 45.17613 5.53088 28940 ft 412 kts 225°
2026-05-06 14:02 45.15584 5.50218 28799 ft 413 kts 225°
2026-05-06 14:02 45.13550 5.47342 28309 ft 414 kts 225°
2026-05-06 14:02 45.11509 5.44459 27769 ft 415 kts 225°
2026-05-06 14:02 45.09454 5.41562 27238 ft 418 kts 225°
2026-05-06 14:03 45.07382 5.38650 26723 ft 422 kts 225°
2026-05-06 14:03 45.05295 5.35717 26200 ft 425 kts 226°
2026-05-06 14:03 45.03216 5.32791 25710 ft 430 kts 226°
2026-05-06 14:03 45.01086 5.29794 25218 ft 434 kts 225°
2026-05-06 14:04 44.98936 5.26779 24715 ft 437 kts 225°
2026-05-06 14:04 44.96766 5.23742 24233 ft 441 kts 225°
2026-05-06 14:04 44.94576 5.20678 23759 ft 444 kts 225°
2026-05-06 14:04 44.92380 5.17608 23247 ft 444 kts 225°
2026-05-06 14:05 44.90190 5.14550 22684 ft 442 kts 225°
2026-05-06 14:05 44.88011 5.11508 22123 ft 439 kts 226°
2026-05-06 14:05 44.85882 5.08541 21587 ft 433 kts 226°
2026-05-06 14:05 44.83746 5.05571 21061 ft 430 kts 226°
2026-05-06 14:06 44.81626 5.02627 20542 ft 427 kts 226°
2026-05-06 14:06 44.79517 4.99703 20032 ft 424 kts 226°
2026-05-06 14:06 44.77422 4.96796 19539 ft 422 kts 226°
2026-05-06 14:06 44.75335 4.93902 19037 ft 421 kts 226°
2026-05-06 14:07 44.73186 4.91108 18554 ft 421 kts 220°
2026-05-06 14:07 44.70765 4.88793 18060 ft 422 kts 211°
2026-05-06 14:07 44.68201 4.86952 17521 ft 414 kts 208°
2026-05-06 14:07 44.65662 4.85171 16985 ft 402 kts 208°
2026-05-06 14:08 44.63190 4.83434 16449 ft 393 kts 208°
2026-05-06 14:08 44.60774 4.81732 15941 ft 384 kts 208°
2026-05-06 14:08 44.58408 4.80065 15417 ft 376 kts 208°
2026-05-06 14:08 44.56070 4.78504 14921 ft 370 kts 203°
2026-05-06 14:09 44.53609 4.77530 14429 ft 365 kts 192°
2026-05-06 14:09 44.51127 4.76943 13934 ft 359 kts 192°
2026-05-06 14:09 44.48682 4.76370 13420 ft 353 kts 192°
2026-05-06 14:09 44.46310 4.75815 12896 ft 348 kts 192°
2026-05-06 14:10 44.43936 4.75257 12366 ft 343 kts 192°
2026-05-06 14:10 44.41595 4.74705 11843 ft 339 kts 192°
2026-05-06 14:10 44.39287 4.74160 11334 ft 334 kts 192°
2026-05-06 14:10 44.37006 4.73619 10832 ft 330 kts 192°
2026-05-06 14:11 44.34753 4.73084 10336 ft 326 kts 192°
2026-05-06 14:11 44.32533 4.72561 9977 ft 319 kts 192°
2026-05-06 14:11 44.30384 4.72060 9897 ft 305 kts 192°
2026-05-06 14:11 44.28353 4.71587 9864 ft 289 kts 192°
2026-05-06 14:12 44.26414 4.71129 9615 ft 284 kts 192°
2026-05-06 14:12 44.24473 4.70667 9348 ft 282 kts 192°
2026-05-06 14:12 44.22541 4.70207 9085 ft 281 kts 192°
2026-05-06 14:12 44.20619 4.69753 8820 ft 280 kts 192°
2026-05-06 14:13 44.18711 4.69302 8554 ft 279 kts 192°
2026-05-06 14:13 44.16792 4.68852 8290 ft 278 kts 192°
2026-05-06 14:13 44.14881 4.68403 8033 ft 277 kts 192°
2026-05-06 14:13 44.12969 4.68167 7769 ft 278 kts 182°
2026-05-06 14:14 44.11073 4.68439 7518 ft 279 kts 171°
2026-05-06 14:14 44.10524 4.68614 7447 ft 279 kts 167°
2026-05-06 14:29 44.09711 4.68993 7383 ft 279 kts 160°
2026-05-06 14:29 44.07919 4.70041 7123 ft 279 kts 159°
2026-05-06 14:29 44.06128 4.71060 6879 ft 277 kts 160°
2026-05-06 14:29 44.04343 4.72057 6631 ft 276 kts 160°
2026-05-06 14:30 44.02567 4.73044 6388 ft 274 kts 160°
2026-05-06 14:30 44.00797 4.74026 6136 ft 274 kts 160°
2026-05-06 14:30 43.99031 4.75009 5879 ft 273 kts 160°
2026-05-06 14:30 43.97276 4.75993 5620 ft 271 kts 160°
2026-05-06 14:31 43.95530 4.76977 5366 ft 270 kts 160°
2026-05-06 14:31 43.93791 4.77958 5108 ft 269 kts 160°
2026-05-06 14:31 43.92080 4.78923 4863 ft 270 kts 160°
2026-05-06 14:31 43.90335 4.79906 4612 ft 270 kts 160°
2026-05-06 14:32 43.88594 4.80886 4351 ft 270 kts 160°
2026-05-06 14:32 43.86859 4.81863 4096 ft 268 kts 160°
2026-05-06 14:32 43.85134 4.82834 3971 ft 268 kts 160°
2026-05-06 14:32 43.83409 4.83802 3979 ft 268 kts 160°
2026-05-06 14:33 43.81674 4.84773 3983 ft 269 kts 160°
2026-05-06 14:33 43.79942 4.85742 3979 ft 269 kts 160°
2026-05-06 14:33 43.78211 4.86711 3977 ft 268 kts 160°
2026-05-06 14:33 43.76479 4.87680 3980 ft 269 kts 160°
2026-05-06 14:34 43.74762 4.88641 3977 ft 269 kts 160°
2026-05-06 14:34 43.73029 4.89613 3978 ft 269 kts 160°
2026-05-06 14:34 43.71287 4.90588 3974 ft 272 kts 160°
2026-05-06 14:34 43.69531 4.91570 3977 ft 271 kts 160°
2026-05-06 14:35 43.67828 4.92524 3974 ft 256 kts 160°
2026-05-06 14:35 43.66227 4.93425 3977 ft 243 kts 160°
2026-05-06 14:35 43.64668 4.94297 3977 ft 241 kts 161°
2026-05-06 14:35 43.63148 4.95147 3979 ft 243 kts 161°
2026-05-06 14:36 43.61616 4.96142 3979 ft 244 kts 149°
2026-05-06 14:36 43.60324 4.97641 3980 ft 243 kts 137°
2026-05-06 14:36 43.59183 4.99287 3988 ft 229 kts 135°
2026-05-06 14:36 43.58121 5.00836 3793 ft 216 kts 136°
2026-05-06 14:37 43.57101 5.02306 3511 ft 208 kts 138°
2026-05-06 14:37 43.56111 5.03724 3248 ft 202 kts 136°
2026-05-06 14:37 43.55156 5.05092 2975 ft 197 kts 136°
2026-05-06 14:37 43.54233 5.06416 2730 ft 187 kts 138°
2026-05-06 14:38 43.53358 5.07670 2480 ft 176 kts 139°
2026-05-06 14:38 43.52540 5.08842 2250 ft 163 kts 139°
2026-05-06 14:38 43.51778 5.09932 2032 ft 155 kts 140°
2026-05-06 14:38 43.51026 5.11004 1824 ft 155 kts 140°
2026-05-06 14:39 43.50283 5.12065 1629 ft 152 kts 138°
2026-05-06 14:39 43.49553 5.13109 1414 ft 151 kts 138°
2026-05-06 14:39 43.48825 5.14147 1208 ft 151 kts 140°
2026-05-06 14:39 43.48106 5.15174 1011 ft 151 kts 139°
2026-05-06 14:40 43.47384 5.16221 779 ft 151 kts 139°
2026-05-06 14:40 43.46668 5.17294 529 ft 153 kts 137°
2026-05-06 14:40 43.45926 5.18364 399 ft 155 kts 140°
2026-05-06 14:40 43.45171 5.19409 228 ft 153 kts 140°
2026-05-06 14:41 43.44451 5.20434 53 ft 139 kts 140°
2026-05-06 14:41 43.43840 5.21249 37 ft 100 kts 134°
2026-05-06 14:41 43.43478 5.21766 35 ft 50 kts 134°
2026-05-06 14:41 43.43366 5.21952 35 ft 0 kts 119°
2026-05-06 14:42 43.43351 5.21992 36 ft 8 kts 114°
2026-05-06 14:42 43.43337 5.22116 37 ft 15 kts 90°
2026-05-06 14:42 43.43341 5.22213 37 ft 0 kts 76°
2026-05-06 14:43 43.43341 5.22214 37 ft 1 kts 76°
2026-05-06 14:43 43.43361 5.22257 36 ft 12 kts 46°
2026-05-06 14:43 43.43445 5.22262 37 ft 13 kts 337°
2026-05-06 14:43 43.43527 5.22193 37 ft 14 kts 328°
2026-05-06 14:44 43.43619 5.22123 37 ft 16 kts 340°
2026-05-06 14:44 43.43714 5.22172 37 ft 16 kts 43°
2026-05-06 14:44 43.43813 5.22217 38 ft 12 kts 348°
2026-05-06 14:45 43.43916 5.22280 37 ft 3 kts 33°
2026-05-06 14:45 43.43925 5.22288 37 ft 1 kts 32°
2026-05-06 14:45 43.43927 5.22289 37 ft 0 kts 31°